EW6500 Weather Reports


Display with metric or nautical units.
time (UTC)temp
F
wind
direction
speed
MPH
gust
MPH
rain 1hr
in
rain 24hr
in
rain mn
in
humidity
%
barometer
mb
20260505013059 51 360 0.0 1.0 0.00 0.00 0.00 94 1028.9
20260505011543 51 360 0.0 0.0 0.00 0.00 0.00 95 1028.9
20260505010038 49 360 0.0 0.0 0.00 0.00 0.00 95 1028.9
20260505004546 48 360 0.0 2.0 0.00 0.00 0.00 94 1028.9
20260505003034 48 242 0.0 3.0 0.00 0.00 0.00 95 1028.8
20260505001531 47 58 0.0 1.0 0.00 0.00 0.00 95 1028.6
20260505000044 47 54 0.0 0.0 0.00 0.00 0.00 94 1028.6
20260504234526 47 54 0.0 0.0 0.00 0.00 0.00 94 1028.4
20260504233022 47 54 0.0 0.0 0.00 0.00 0.00 94 1028.1
20260504231519 47 54 0.0 0.0 0.00 0.00 0.00 94 1028.0
20260504230017 47 54 0.0 0.0 0.00 0.00 0.00 94 1027.8
20260504224515 47 54 0.0 0.0 0.00 0.00 0.00 94 1027.7
20260504223015 46 54 0.0 0.0 0.00 0.00 0.00 94 1027.5
20260504221514 46 54 0.0 0.0 0.00 0.00 0.00 94 1027.5
20260504220014 46 54 0.0 0.0 0.00 0.00 0.00 94 1027.5
20260504214512 46 54 0.0 0.0 0.00 0.00 0.00 94 1027.4
20260504213012 45 54 0.0 0.0 0.00 0.00 0.00 94 1027.2
20260504211511 45 54 0.0 0.0 0.00 0.00 0.00 94 1027.3
20260504210013 45 54 0.0 0.0 0.00 0.00 0.00 94 1027.1
20260504204510 45 54 0.0 0.0 0.00 0.00 0.00 93 1027.1
20260504203010 45 54 0.0 0.0 0.00 0.00 0.00 93 1027.0
20260504201508 46 54 0.0 0.0 0.00 0.00 0.00 94 1027.0
20260504200010 45 54 0.0 0.0 0.00 0.00 0.00 94 1027.0
20260504194507 45 54 0.0 0.0 0.00 0.00 0.00 94 1027.1
20260504193008 45 54 0.0 0.0 0.00 0.00 0.00 94 1027.1
20260504191506 45 54 0.0 0.0 0.00 0.00 0.00 93 1027.1
20260504190005 45 54 0.0 0.0 0.00 0.00 0.00 94 1027.1
20260504184503 44 54 0.0 0.0 0.00 0.00 0.00 93 1027.2
20260504183002 44 54 0.0 0.0 0.00 0.00 0.00 93 1027.2
20260504181602 44 54 0.0 0.0 0.00 0.00 0.00 93 1027.3
20260504180117 45 54 0.0 0.0 0.00 0.00 0.00 92 1027.3
20260504174557 45 54 0.0 0.0 0.00 0.00 0.00 93 1027.4
20260504173057 45 54 0.0 0.0 0.00 0.00 0.00 93 1027.4
20260504171554 45 54 0.0 0.0 0.00 0.00 0.00 92 1027.5
20260504081516 66 140 0.0 3.0 0.00 0.00 0.00 64 1026.9
20260504044543 62 88 1.0 6.0 0.00 0.00 0.00 76 1027.6
20260504043046 61 78 1.0 9.0 0.00 0.00 0.00 80 1027.8
20260504041539 60 65 3.0 8.0 0.00 0.00 0.00 78 1027.9
20260504040044 60 46 1.0 5.0 0.00 0.00 0.00 78 1028.2
20260504034542 61 33 1.0 4.0 0.00 0.00 0.00 79 1028.4
20260504033038 60 51 0.0 3.0 0.00 0.00 0.00 81 1028.5
20260504031538 59 44 1.0 3.0 0.00 0.00 0.00 82 1028.7
20260504030030 59 43 0.0 3.0 0.00 0.00 0.00 85 1028.8
20260504024526 57 76 0.0 4.0 0.00 0.00 0.00 87 1028.9
20260504023025 57 350 1.0 3.0 0.00 0.00 0.00 88 1029.1
20260504021522 56 44 0.0 3.0 0.00 0.00 0.00 89 1029.0
20260504020019 55 129 1.0 2.0 0.00 0.00 0.00 90 1028.9
20260504014517 55 128 0.0 3.0 0.00 0.00 0.00 91 1028.8